| time (UTC) | temp F | wind direction | speed knots | gust knots | rain 1hr in | rain 24hr in | rain mn in | humidity % | barometer mb |
| 20260906110004 | 70 | 35 | 0.0 | 0.0 | 0.00 | 0.08 | 0.01 | 97 | 1011.4 |
| 20260906104506 | 70 | 35 | 0.0 | 1.7 | 0.00 | 0.08 | 0.01 | 97 | 1011.2 |
| 20260906103005 | 70 | 35 | 0.0 | 1.7 | 0.00 | 0.08 | 0.01 | 97 | 1011.0 |
| 20260906101505 | 70 | 35 | 0.0 | 0.0 | 0.00 | 0.08 | 0.01 | 97 | 1011.1 |
| 20260906100006 | 70 | 35 | 0.0 | 1.7 | 0.00 | 0.08 | 0.01 | 97 | 1010.9 |
| 20260906094507 | 70 | 32 | 0.0 | 0.0 | 0.00 | 0.08 | 0.01 | 97 | 1010.8 |
| 20260906093005 | 70 | 32 | 0.0 | 0.0 | 0.01 | 0.08 | 0.01 | 97 | 1010.8 |
| 20260906091507 | 70 | 32 | 0.0 | 0.0 | 0.01 | 0.08 | 0.01 | 97 | 1010.7 |
| 20260906090007 | 70 | 32 | 0.0 | 0.0 | 0.01 | 0.08 | 0.01 | 97 | 1010.7 |
| 20260906084507 | 70 | 32 | 0.0 | 0.0 | 0.01 | 0.08 | 0.01 | 97 | 1010.7 |
| 20260906083009 | 70 | 32 | 0.0 | 0.0 | 0.00 | 0.07 | 0.00 | 97 | 1011.0 |
| 20260906081506 | 71 | 32 | 0.0 | 0.0 | 0.00 | 0.07 | 0.00 | 97 | 1011.0 |
| 20260906080008 | 71 | 64 | 0.0 | 0.0 | 0.00 | 0.07 | 0.00 | 97 | 1010.9 |
| 20260906074510 | 71 | 64 | 0.0 | 0.0 | 0.00 | 0.07 | 0.00 | 97 | 1010.9 |
| 20260906073017 | 71 | 64 | 0.0 | 0.0 | 0.00 | 0.07 | 0.00 | 97 | 1011.1 |
| 20260906071512 | 70 | 64 | 0.0 | 1.7 | 0.00 | 0.07 | 0.00 | 97 | 1011.1 |
| 20260906070012 | 71 | 64 | 0.0 | 1.7 | 0.00 | 0.07 | 0.00 | 96 | 1010.8 |
| 20260906064510 | 71 | 64 | 0.0 | 1.7 | 0.00 | 0.07 | 0.00 | 96 | 1011.0 |
| 20260906063013 | 71 | 64 | 0.0 | 0.0 | 0.00 | 0.07 | 0.00 | 97 | 1011.0 |
| 20260906061512 | 71 | 64 | 0.0 | 1.7 | 0.00 | 0.07 | 0.00 | 96 | 1011.3 |
| 20260906060012 | 71 | 64 | 0.9 | 1.7 | 0.00 | 0.07 | 0.00 | 96 | 1011.5 |
| 20260906054515 | 71 | 49 | 0.0 | 1.7 | 0.00 | 0.07 | 0.00 | 96 | 1011.5 |
| 20260906053012 | 71 | 49 | 0.0 | 1.7 | 0.00 | 0.07 | 0.00 | 96 | 1011.4 |
| 20260906051514 | 71 | 49 | 0.0 | 0.0 | 0.00 | 0.07 | 0.00 | 96 | 1011.5 |
| 20260906050018 | 71 | 49 | 0.0 | 0.0 | 0.00 | 0.07 | 0.00 | 96 | 1011.7 |
| 20260906044508 | 71 | 49 | 0.0 | 1.7 | 0.00 | 0.07 | 0.00 | 96 | 1011.9 |
| 20260906043012 | 71 | 115 | 0.0 | 1.7 | 0.00 | 0.07 | 0.00 | 96 | 1012.1 |
| 20260906041522 | 71 | 115 | 0.0 | 1.7 | 0.00 | 0.07 | 0.00 | 95 | 1012.0 |
| 20260906040020 | 72 | 72 | 0.9 | 2.6 | 0.00 | 0.07 | 0.00 | 95 | 1012.2 |
| 20260906034520 | 72 | 55 | 0.0 | 0.0 | 0.00 | 0.07 | 0.07 | 95 | 1012.1 |
| 20260906033005 | 72 | 101 | 0.0 | 0.0 | 0.00 | 0.07 | 0.07 | 95 | 1012.4 |
| 20260906031513 | 72 | 39 | 0.0 | 0.0 | 0.00 | 0.07 | 0.07 | 95 | 1012.2 |
| 20260906030017 | 72 | 28 | 0.0 | 1.7 | 0.00 | 0.07 | 0.07 | 94 | 1012.5 |
| 20260906024523 | 73 | 97 | 0.0 | 4.3 | 0.00 | 0.07 | 0.07 | 94 | 1012.3 |
| 20260906023024 | 73 | 83 | 3.5 | 5.2 | 0.00 | 0.07 | 0.07 | 93 | 1012.1 |
| 20260906021521 | 73 | 243 | 0.0 | 1.7 | 0.00 | 0.07 | 0.07 | 93 | 1011.4 |
| 20260906020014 | 73 | 316 | 1.7 | 2.6 | 0.00 | 0.07 | 0.07 | 94 | 1011.5 |
| 20260906014522 | 73 | 30 | 0.9 | 1.7 | 0.00 | 0.07 | 0.07 | 93 | 1010.9 |
| 20260906013029 | 73 | 42 | 0.9 | 1.7 | 0.00 | 0.07 | 0.07 | 92 | 1010.8 |
| 20260906011523 | 74 | 300 | 0.0 | 2.6 | 0.00 | 0.07 | 0.07 | 91 | 1010.9 |
| 20260906010026 | 73 | 279 | 0.9 | 3.5 | 0.06 | 0.07 | 0.07 | 92 | 1010.5 |
| 20260906004526 | 73 | 249 | 3.5 | 6.1 | 0.07 | 0.07 | 0.07 | 92 | 1009.8 |
| 20260906003024 | 74 | 264 | 0.0 | 4.3 | 0.07 | 0.07 | 0.07 | 90 | 1010.8 |
| 20260906001527 | 74 | 188 | 0.9 | 5.2 | 0.07 | 0.07 | 0.07 | 87 | 1010.8 |
| 20260906000025 | 77 | 271 | 3.5 | 17.4 | 0.01 | 0.01 | 0.01 | 78 | 1012.3 |
| 20260905234527 | 84 | 64 | 7.0 | 13.9 | 0.00 | 0.00 | 0.00 | 64 | 1013.4 |
| 20260905233034 | 87 | 36 | 7.0 | 17.4 | 0.00 | 0.00 | 0.00 | 60 | 1012.7 |
| 20260905231530 | 89 | 121 | 0.0 | 0.0 | 0.00 | 0.00 | 0.00 | 67 | 1011.5 |
| 20260905230027 | 89 | 121 | 0.0 | 1.7 | 0.00 | 0.00 | 0.00 | 66 | 1011.5 |
| 20260905224530 | 92 | 214 | 0.0 | 1.7 | 0.00 | 0.00 | 0.00 | 61 | 1010.9 |
| 20260905223027 | 93 | 214 | 0.0 | 2.6 | 0.00 | 0.00 | 0.00 | 56 | 1010.7 |
| 20260905221532 | 93 | 248 | 0.9 | 4.3 | 0.00 | 0.00 | 0.00 | 54 | 1010.8 |
| 20260905220007 | 94 | 228 | 2.6 | 5.2 | 0.00 | 0.00 | 0.00 | 54 | 1010.6 |
| 20260905214505 | 94 | 233 | 2.6 | 6.1 | 0.00 | 0.00 | 0.00 | 54 | 1010.1 |
| 20260905213014 | 94 | 227 | 2.6 | 4.3 | 0.00 | 0.00 | 0.00 | 54 | 1010.2 |
| 20260905211528 | 94 | 205 | 2.6 | 7.0 | 0.00 | 0.00 | 0.00 | 54 | 1010.3 |
| 20260905210023 | 95 | 54 | 2.6 | 4.3 | 0.00 | 0.00 | 0.00 | 51 | 1010.3 |
| 20260905204506 | 94 | 234 | 2.6 | 5.2 | 0.00 | 0.00 | 0.00 | 55 | 1010.3 |
| 20260905203030 | 94 | 276 | 1.7 | 4.3 | 0.00 | 0.00 | 0.00 | 54 | 1010.2 |
| 20260905201515 | 95 | 219 | 2.6 | 4.3 | 0.00 | 0.00 | 0.00 | 53 | 1010.2 |
| 20260905200024 | 94 | 282 | 0.9 | 2.6 | 0.00 | 0.00 | 0.00 | 51 | 1010.3 |
| 20260905194527 | 94 | 281 | 0.9 | 4.3 | 0.00 | 0.00 | 0.00 | 57 | 1010.5 |
| 20260905193008 | 94 | 227 | 1.7 | 6.1 | 0.00 | 0.00 | 0.00 | 56 | 1010.8 |
| 20260905191512 | 94 | 332 | 0.9 | 5.2 | 0.00 | 0.00 | 0.00 | 56 | 1011.1 |
| 20260905190018 | 94 | 205 | 1.7 | 4.3 | 0.00 | 0.00 | 0.00 | 57 | 1011.2 |
| 20260905184524 | 94 | 274 | 0.9 | 2.6 | 0.00 | 0.00 | 0.00 | 58 | 1011.5 |
| 20260905183028 | 93 | 323 | 2.6 | 6.1 | 0.00 | 0.00 | 0.00 | 58 | 1011.7 |
| 20260905181508 | 93 | 276 | 1.7 | 3.5 | 0.00 | 0.00 | 0.00 | 61 | 1012.0 |
| 20260905180016 | 92 | 281 | 1.7 | 4.3 | 0.00 | 0.00 | 0.00 | 63 | 1012.4 |
| 20260905174523 | 91 | 45 | 0.9 | 6.1 | 0.00 | 0.00 | 0.00 | 64 | 1012.7 |
| 20260905173027 | 90 | 231 | 2.6 | 7.0 | 0.00 | 0.00 | 0.00 | 66 | 1012.7 |
| 20260905171535 | 89 | 359 | 0.0 | 7.0 | 0.00 | 0.00 | 0.00 | 68 | 1012.8 |
| 20260905170014 | 89 | 6 | 1.7 | 5.2 | 0.00 | 0.00 | 0.00 | 68 | 1013.2 |
| 20260905164524 | 88 | 286 | 0.9 | 5.2 | 0.00 | 0.00 | 0.00 | 71 | 1013.5 |
| 20260905163024 | 88 | 313 | 1.7 | 6.1 | 0.00 | 0.00 | 0.00 | 73 | 1013.8 |
| 20260905161504 | 86 | 278 | 2.6 | 4.3 | 0.00 | 0.00 | 0.00 | 74 | 1014.0 |
| 20260905160022 | 86 | 282 | 0.9 | 3.5 | 0.00 | 0.00 | 0.00 | 77 | 1014.2 |
| 20260905154516 | 84 | 276 | 0.9 | 5.2 | 0.00 | 0.00 | 0.00 | 79 | 1014.4 |
| 20260905153018 | 83 | 351 | 1.7 | 3.5 | 0.00 | 0.00 | 0.00 | 81 | 1014.7 |
| 20260905151531 | 82 | 277 | 0.9 | 5.2 | 0.00 | 0.00 | 0.00 | 83 | 1014.6 |
| 20260905150008 | 82 | 82 | 1.7 | 3.5 | 0.00 | 0.00 | 0.00 | 85 | 1014.6 |
| 20260905144533 | 81 | 300 | 0.9 | 3.5 | 0.00 | 0.00 | 0.00 | 87 | 1014.6 |
| 20260905143021 | 80 | 297 | 2.6 | 4.3 | 0.00 | 0.00 | 0.00 | 89 | 1014.7 |
| 20260905141524 | 79 | 1 | 1.7 | 4.3 | 0.00 | 0.00 | 0.00 | 90 | 1014.9 |
| 20260905140028 | 79 | 308 | 1.7 | 4.3 | 0.00 | 0.00 | 0.00 | 91 | 1014.9 |
| 20260905134510 | 79 | 33 | 0.0 | 4.3 | 0.00 | 0.00 | 0.00 | 92 | 1014.8 |
| 20260905133013 | 78 | 299 | 1.7 | 5.2 | 0.00 | 0.00 | 0.00 | 93 | 1014.9 |
| 20260905131523 | 78 | 304 | 0.9 | 3.5 | 0.00 | 0.00 | 0.00 | 94 | 1014.9 |
| 20260905130027 | 76 | 360 | 0.0 | 3.5 | 0.00 | 0.00 | 0.00 | 96 | 1014.9 |
| 20260905124530 | 76 | 348 | 1.7 | 3.5 | 0.00 | 0.00 | 0.00 | 97 | 1014.9 |
| 20260905123015 | 76 | 330 | 1.7 | 2.6 | 0.00 | 0.00 | 0.00 | 97 | 1014.7 |
| 20260905121520 | 75 | 304 | 0.0 | 2.6 | 0.00 | 0.00 | 0.00 | 98 | 1014.7 |
| 20260905120027 | 75 | 335 | 0.0 | 1.7 | 0.00 | 0.00 | 0.00 | 98 | 1014.6 |
| 20260905114531 | 75 | 309 | 0.0 | 0.0 | 0.00 | 0.00 | 0.00 | 97 | 1014.6 |
| 20260905113031 | 75 | 290 | 0.0 | 0.0 | 0.00 | 0.00 | 0.00 | 97 | 1014.4 |
| 20260905111518 | 74 | 296 | 0.0 | 0.0 | 0.00 | 0.00 | 0.00 | 97 | 1014.3 |